« Back
NWS Peachtree City, Ga » Text Product » GA Regional Weather Roundup


Printer-friendly Version
Current Version              Previous Versions:   1  2  3  4  5  6  7  8  9  

Regional Weather Roundup

969
ASUS42 KFFC 070903
RWRGA
WEATHER ROUNDUP FOR GEORGIA
NATIONAL WEATHER SERVICE PEACHTREE CITY GA
400 AM EST SUN FEB 07 2016

NOTE: "FAIR" INDICATES FEW OR NO CLOUDS BELOW 12,000 FEET WITH NO
SIGNIFICANT WEATHER AND/OR OBSTRUCTIONS TO VISIBILITY.

* = USE WITH CAUTION. THE STATIONS MARKED WITH AN ASTERISK MAY NOT
REPORT WEATHER SUCH AS PRECIPITATION, FOG, OR THUNDER AND ARE NOT
QUALITY CONTROLLED BY NWS.

THE REMARK "TC" DENOTES TEMPERATURE READING IN DEGREES CELSIUS.

GAZ001>058-071000-
NORTH GEORGIA

CITY           SKY/WX    TMP DP  RH WIND       PRES   REMARKS
ATLANTA        CLEAR     32  21  64 NW9       30.14S WCI  24
ATHENS         CLEAR     31  23  72 CALM      30.14S
CHAMBLEE       CLEAR     30  21  69 CALM      30.14S
PEACHTREE CITY CLEAR     27  23  85 CALM      30.15F
ROME           PTCLDY    27  23  85 CALM      30.18F
WEST ATLANTA   CLEAR     33  19  56 CALM      30.16S
GAINESVILLE    CLEAR     31  21  66 N3        30.14F
CARTERSVILLE   PTCLDY    26  22  84 CALM      30.19S


CITY           SKY/WX    TMP DP  RH WIND       PRES   REMARKS
MARIETTA       CLEAR     33  19  56 NW3       30.14F
BLAIRSVILLE*     N/A     23  13  65 CALM      30.14F
$$

GAZ059>098-102>109-071000-
CENTRAL GEORGIA

CITY           SKY/WX    TMP DP  RH WIND       PRES   REMARKS
AUGUSTA-BUSH   MOCLDY    41  31  67 N12       30.09F
AUGUSTA-DANIEL MOCLDY    43  23  45 N8        30.09F
COLUMBUS       CLEAR     37  19  48 N8        30.16S WCI  31
MACON          CLOUDY    32  28  85 W5        30.14R WCI  27
ROBINS AFB     CLOUDY    34  27  75 NW6       30.13S WCI  29


CITY           SKY/WX    TMP DP  RH WIND       PRES   REMARKS
LAGRANGE*      CLEAR     31  29  92 CALM      30.16S
SYLVANIA*      LGT RAIN  40  39  97 N10       30.06F WCI  34
MILLEDGEVILLE* CLOUDY    37  28  70 NW3       30.12F
$$

GAZ099>101-110>166-071000-
SOUTH GEORGIA

CITY           SKY/WX    TMP DP  RH WIND       PRES   REMARKS
SAVANNAH       RAIN      39  36  89 N15G24    30.01S WCI  31
VALDOSTA       MOCLDY    41  35  79 VRB3      30.10F
ALMA           CLOUDY    41  38  89 NW10      30.08R
ST SIMONS      RAIN      41  41 100 NW8       29.99S FOG
FT STEWART     HVY RAIN  40  38  92 N15G24    29.99S WCI  32
ALBANY         MOCLDY    37  31  78 NW6       30.15F WCI  32
HUNTER AFB     RAIN      40  39  98 N10G20    29.98R WCI  33
MOODY AFB      MOCLDY    41  34  77 N10       30.07F
BRUNSWICK      RAIN      41  41 100 NW5       30.01S


CITY           SKY/WX    TMP DP  RH WIND       PRES   REMARKS
BAINBRIDGE*    MOCLDY    37  34  87 NW7       30.15F WCI  32
MOULTRIE*      MOCLDY    41  34  75 NW3       30.13S
VIDALIA*       CLOUDY    41  37  87 NW8       30.07F
WAYCROSS*      LGT RAIN  43  43  99 N13       30.08R
DOUGLAS*       MOCLDY    41  34  75 N6        30.12R
$$




USA.gov is the U.S. government's official web portal to all federal, state and local government web resources and services.